Retour au catalogue

COSMOS 1275 DEB

ActifPO
NORAD 17641·DEBRIS·🇷🇺 Russia

Lancé Jun 4, 1981 depuis Plesetsk Cosmodrome

Loading…

Prochains Passages (prochaines 24 heures)

TLE

FraisSource: Space-Track

Époque: Sep 14, 2026, 14:11 UTC

1 17641U 81053LL  26257.59115950  .00002231  00000-0  95892-3 0  9997
2 17641  82.7502 194.3292 0050201 117.2335   2.7292 14.23642446124606

Suivez COSMOS 1275 DEB en temps réel avec AllMySat

Download on the App Store